GLO1411 SBPS-SBCF

Flight info

Callsign GLO1411
Flight time 0h 58m
Altitude 34000
Route EDRAG DCT DORDU DCT OPTEB
Aircraft B737/M-SDE2E3FGHIRWXY/LB1

Departure

Time 2026-04-29 09:10
Airport Porto Seguro International Airport (SBPS)

Arrival

Time 2026-04-29 10:08
Airport Tancredo Neves International Airport (SBCF)
Time Latitude Longitude Altitude Speed Heading
2026-04-29 09:04 -16.44000 -39.08047 159 ft 0 kts 254°
2026-04-29 09:06 -16.44003 -39.08058 159 ft 4 kts 254°
2026-04-29 09:06 -16.44004 -39.08108 159 ft 9 kts 308°
2026-04-29 09:06 -16.43928 -39.08134 159 ft 14 kts 344°
2026-04-29 09:07 -16.43855 -39.08096 158 ft 16 kts 74°
2026-04-29 09:07 -16.43821 -39.07973 158 ft 19 kts 74°
2026-04-29 09:07 -16.43782 -39.07832 160 ft 21 kts 74°
2026-04-29 09:07 -16.43739 -39.07676 161 ft 24 kts 75°
2026-04-29 09:08 -16.43695 -39.07503 162 ft 25 kts 73°
2026-04-29 09:08 -16.43650 -39.07337 161 ft 23 kts 75°
2026-04-29 09:08 -16.43652 -39.07217 159 ft 11 kts 81°
2026-04-29 09:08 -16.43613 -39.07218 159 ft 7 kts 288°
2026-04-29 09:09 -16.43630 -39.07264 160 ft 7 kts 246°
2026-04-29 09:09 -16.43639 -39.07297 160 ft 13 kts 256°
2026-04-29 09:09 -16.43751 -39.07707 161 ft 104 kts 254°
2026-04-29 09:09 -16.44006 -39.08674 350 ft 160 kts 255°
2026-04-29 09:10 -16.44319 -39.09841 1148 ft 169 kts 255°
2026-04-29 09:10 -16.44642 -39.11048 2085 ft 177 kts 253°
2026-04-29 09:10 -16.45280 -39.12237 2584 ft 212 kts 218°
2026-04-29 09:10 -16.46724 -39.12806 3028 ft 233 kts 182°
2026-04-29 09:11 -16.48316 -39.13122 4039 ft 243 kts 196°
2026-04-29 09:11 -16.49990 -39.13804 4645 ft 271 kts 200°
2026-04-29 09:11 -16.51750 -39.14595 5644 ft 280 kts 200°
2026-04-29 09:11 -16.53554 -39.15400 6720 ft 284 kts 200°
2026-04-29 09:12 -16.55391 -39.16202 7730 ft 289 kts 200°
2026-04-29 09:12 -16.57276 -39.17009 8721 ft 296 kts 199°
2026-04-29 09:12 -16.59174 -39.17891 9696 ft 305 kts 211°
2026-04-29 09:12 -16.60636 -39.19513 10541 ft 316 kts 238°
2026-04-29 09:13 -16.61766 -39.21577 10998 ft 339 kts 241°
2026-04-29 09:13 -16.62876 -39.23755 11718 ft 348 kts 242°
2026-04-29 09:13 -16.64010 -39.26001 12608 ft 352 kts 242°
2026-04-29 09:13 -16.65165 -39.28265 13512 ft 355 kts 241°
2026-04-29 09:14 -16.66344 -39.30546 14297 ft 360 kts 240°
2026-04-29 09:14 -16.67550 -39.32854 15041 ft 364 kts 240°
2026-04-29 09:14 -16.68791 -39.35211 15845 ft 366 kts 240°
2026-04-29 09:14 -16.70026 -39.37546 16627 ft 369 kts 240°
2026-04-29 09:15 -16.71257 -39.39869 17360 ft 373 kts 240°
2026-04-29 09:15 -16.72520 -39.42248 18080 ft 377 kts 240°
2026-04-29 09:15 -16.73797 -39.44655 18751 ft 381 kts 240°
2026-04-29 09:15 -16.75089 -39.47089 19361 ft 385 kts 241°
2026-04-29 09:16 -16.76394 -39.49549 19967 ft 390 kts 241°
2026-04-29 09:16 -16.77716 -39.52040 20571 ft 394 kts 241°
2026-04-29 09:16 -16.79050 -39.54557 21191 ft 398 kts 241°
2026-04-29 09:16 -16.80399 -39.57101 21797 ft 402 kts 241°
2026-04-29 09:17 -16.81760 -39.59671 22384 ft 407 kts 241°
2026-04-29 09:17 -16.83137 -39.62269 22961 ft 412 kts 241°
2026-04-29 09:17 -16.84530 -39.64902 23549 ft 416 kts 242°
2026-04-29 09:17 -16.85933 -39.67553 24095 ft 418 kts 242°
2026-04-29 09:18 -16.87307 -39.70227 24662 ft 419 kts 244°
2026-04-29 09:18 -16.88590 -39.72962 25217 ft 420 kts 245°
2026-04-29 09:18 -16.89833 -39.75734 25758 ft 422 kts 245°
2026-04-29 09:18 -16.91067 -39.78524 26283 ft 424 kts 245°
2026-04-29 09:19 -16.92308 -39.81327 26817 ft 427 kts 245°
2026-04-29 09:19 -16.93563 -39.84146 27330 ft 429 kts 245°
2026-04-29 09:19 -16.94833 -39.86980 27845 ft 431 kts 245°
2026-04-29 09:19 -16.96112 -39.89819 28331 ft 433 kts 245°
2026-04-29 09:20 -16.97397 -39.92665 28915 ft 433 kts 245°
2026-04-29 09:20 -16.98678 -39.95497 29637 ft 429 kts 245°
2026-04-29 09:20 -16.99947 -39.98301 30404 ft 424 kts 244°
2026-04-29 09:20 -17.01201 -40.01072 31060 ft 420 kts 244°
2026-04-29 09:21 -17.02447 -40.03828 31639 ft 419 kts 244°
2026-04-29 09:21 -17.03691 -40.06579 32196 ft 418 kts 244°
2026-04-29 09:21 -17.04924 -40.09309 32808 ft 414 kts 244°
2026-04-29 09:21 -17.06149 -40.12021 33421 ft 411 kts 244°
2026-04-29 09:22 -17.07369 -40.14723 33967 ft 410 kts 244°
2026-04-29 09:22 -17.08589 -40.17429 34085 ft 414 kts 244°
2026-04-29 09:22 -17.09812 -40.20140 34113 ft 410 kts 244°
2026-04-29 09:23 -17.12237 -40.25522 34127 ft 410 kts 244°
2026-04-29 09:23 -17.14669 -40.30923 34123 ft 411 kts 244°
2026-04-29 09:24 -17.17107 -40.36342 34119 ft 412 kts 244°
2026-04-29 09:24 -17.19527 -40.41727 34125 ft 412 kts 244°
2026-04-29 09:25 -17.21960 -40.47143 34119 ft 411 kts 244°
2026-04-29 09:25 -17.24390 -40.52559 34120 ft 411 kts 244°
2026-04-29 09:26 -17.26812 -40.57960 34122 ft 410 kts 244°
2026-04-29 09:26 -17.29243 -40.63388 34118 ft 409 kts 244°
2026-04-29 09:27 -17.31655 -40.68777 34120 ft 409 kts 244°
2026-04-29 09:27 -17.34064 -40.74165 34121 ft 409 kts 244°
2026-04-29 09:28 -17.36455 -40.79516 34125 ft 409 kts 244°
2026-04-29 09:28 -17.38865 -40.84915 34130 ft 409 kts 244°
2026-04-29 09:29 -17.41270 -40.90307 34124 ft 409 kts 244°
2026-04-29 09:29 -17.44877 -40.98401 34126 ft 409 kts 244°
2026-04-29 09:30 -17.47277 -41.03795 34123 ft 408 kts 244°
2026-04-29 09:30 -17.49674 -41.09185 34127 ft 408 kts 244°
2026-04-29 09:31 -17.52067 -41.14571 34124 ft 408 kts 244°
2026-04-29 09:31 -17.54462 -41.19966 34124 ft 408 kts 244°
2026-04-29 09:32 -17.56851 -41.25354 34131 ft 408 kts 244°
2026-04-29 09:32 -17.59239 -41.30743 34133 ft 408 kts 244°
2026-04-29 09:33 -17.61625 -41.36131 34128 ft 407 kts 244°
2026-04-29 09:33 -17.64007 -41.41516 34131 ft 407 kts 244°
2026-04-29 09:34 -17.66388 -41.46904 34141 ft 407 kts 244°
2026-04-29 09:34 -17.68767 -41.52293 34136 ft 408 kts 244°
2026-04-29 09:35 -17.71149 -41.57690 34138 ft 408 kts 244°
2026-04-29 09:35 -17.73127 -41.62179 34135 ft 408 kts 244°
2026-04-29 09:36 -17.75505 -41.67576 34135 ft 408 kts 244°
2026-04-29 09:36 -17.77881 -41.72975 34139 ft 407 kts 244°
2026-04-29 09:37 -17.80252 -41.78369 34134 ft 407 kts 244°
2026-04-29 09:37 -17.82621 -41.83760 34138 ft 407 kts 245°
2026-04-29 09:38 -17.84989 -41.89157 34132 ft 407 kts 245°
2026-04-29 09:38 -17.87351 -41.94543 34148 ft 406 kts 245°
2026-04-29 09:39 -17.89715 -41.99938 34140 ft 406 kts 245°
2026-04-29 09:39 -17.92073 -42.05325 34139 ft 406 kts 245°
2026-04-29 09:40 -17.94427 -42.10707 34137 ft 406 kts 245°
2026-04-29 09:40 -17.96779 -42.16091 34134 ft 405 kts 245°
2026-04-29 09:41 -17.99129 -42.21473 34137 ft 405 kts 245°
2026-04-29 09:41 -18.01477 -42.26858 34137 ft 405 kts 245°
2026-04-29 09:42 -18.03822 -42.32239 34144 ft 405 kts 245°
2026-04-29 09:42 -18.06165 -42.37620 34138 ft 405 kts 245°
2026-04-29 09:43 -18.08503 -42.42996 34137 ft 404 kts 245°
2026-04-29 09:43 -18.10837 -42.48365 34140 ft 404 kts 245°
2026-04-29 09:44 -18.13150 -42.53693 34141 ft 403 kts 245°
2026-04-29 09:44 -18.15479 -42.59061 34141 ft 403 kts 245°
2026-04-29 09:45 -18.17805 -42.64429 34148 ft 404 kts 245°
2026-04-29 09:45 -18.20131 -42.69801 34152 ft 403 kts 245°
2026-04-29 09:46 -18.22454 -42.75169 34147 ft 403 kts 245°
2026-04-29 09:46 -18.24773 -42.80536 34153 ft 403 kts 245°
2026-04-29 09:47 -18.27096 -42.85914 33797 ft 405 kts 246°
2026-04-29 09:47 -18.28259 -42.88611 33547 ft 404 kts 246°
2026-04-29 09:47 -18.29419 -42.91301 33298 ft 405 kts 246°
2026-04-29 09:48 -18.30596 -42.94031 33076 ft 414 kts 246°
2026-04-29 09:48 -18.31799 -42.96822 32835 ft 422 kts 246°
2026-04-29 09:48 -18.33013 -42.99641 32582 ft 423 kts 246°
2026-04-29 09:48 -18.34222 -43.02456 32342 ft 421 kts 246°
2026-04-29 09:49 -18.35425 -43.05263 32100 ft 421 kts 246°
2026-04-29 09:49 -18.36626 -43.08070 31859 ft 420 kts 246°
2026-04-29 09:49 -18.37935 -43.10817 31610 ft 421 kts 239°
2026-04-29 09:49 -18.39664 -43.13311 31379 ft 422 kts 230°
2026-04-29 09:50 -18.41728 -43.15511 31149 ft 425 kts 220°
2026-04-29 09:50 -18.44065 -43.17428 30931 ft 426 kts 218°
2026-04-29 09:50 -18.46455 -43.19294 30704 ft 429 kts 218°
2026-04-29 09:50 -18.48866 -43.21156 30482 ft 431 kts 217°
2026-04-29 09:51 -18.51290 -43.23034 30255 ft 434 kts 218°
2026-04-29 09:51 -18.53716 -43.24928 30006 ft 436 kts 218°
2026-04-29 09:51 -18.56151 -43.26842 29541 ft 437 kts 218°
2026-04-29 09:51 -18.58593 -43.28773 28724 ft 439 kts 218°
2026-04-29 09:52 -18.61032 -43.30706 27955 ft 439 kts 219°
2026-04-29 09:52 -18.63460 -43.32634 27359 ft 434 kts 219°
2026-04-29 09:52 -18.65860 -43.34541 26759 ft 431 kts 219°
2026-04-29 09:52 -18.68246 -43.36438 26132 ft 429 kts 219°
2026-04-29 09:53 -18.70623 -43.38328 25525 ft 427 kts 219°
2026-04-29 09:53 -18.72991 -43.40212 24911 ft 425 kts 219°
2026-04-29 09:53 -18.75351 -43.42089 24294 ft 424 kts 219°
2026-04-29 09:53 -18.77702 -43.43961 23673 ft 423 kts 219°
2026-04-29 09:54 -18.80051 -43.45831 22956 ft 422 kts 219°
2026-04-29 09:54 -18.82383 -43.47688 22330 ft 418 kts 219°
2026-04-29 09:54 -18.84699 -43.49533 21715 ft 415 kts 219°
2026-04-29 09:54 -18.86990 -43.51359 21104 ft 412 kts 218°
2026-04-29 09:55 -18.89271 -43.53178 20490 ft 409 kts 218°
2026-04-29 09:55 -18.91536 -43.54984 19878 ft 407 kts 218°
2026-04-29 09:55 -18.93785 -43.56780 19268 ft 404 kts 218°
2026-04-29 09:55 -18.96021 -43.58564 18669 ft 402 kts 218°
2026-04-29 09:56 -18.98249 -43.60343 17987 ft 400 kts 218°
2026-04-29 09:56 -19.00463 -43.62110 17363 ft 396 kts 218°
2026-04-29 09:56 -19.02617 -43.63913 16552 ft 398 kts 220°
2026-04-29 09:56 -19.04720 -43.65821 15858 ft 397 kts 222°
2026-04-29 09:57 -19.06785 -43.67751 15218 ft 395 kts 222°
2026-04-29 09:57 -19.08830 -43.69671 14594 ft 392 kts 222°
2026-04-29 09:57 -19.10861 -43.71573 14005 ft 389 kts 222°
2026-04-29 09:57 -19.12887 -43.73461 13348 ft 386 kts 221°
2026-04-29 09:58 -19.14894 -43.75323 12741 ft 382 kts 221°
2026-04-29 09:58 -19.16877 -43.77160 12163 ft 377 kts 221°
2026-04-29 09:58 -19.18838 -43.78973 11586 ft 372 kts 221°
2026-04-29 09:58 -19.20775 -43.80763 11023 ft 368 kts 220°
2026-04-29 09:59 -19.22676 -43.82521 10638 ft 354 kts 220°
2026-04-29 09:59 -19.24479 -43.84188 10421 ft 334 kts 220°
2026-04-29 09:59 -19.26179 -43.85761 10259 ft 316 kts 220°
2026-04-29 09:59 -19.27798 -43.87260 10000 ft 303 kts 220°
2026-04-29 10:00 -19.29348 -43.88693 9883 ft 286 kts 220°
2026-04-29 10:00 -19.30853 -43.90085 9304 ft 288 kts 220°
2026-04-29 10:00 -19.32362 -43.91481 8867 ft 288 kts 219°
2026-04-29 10:00 -19.33865 -43.92873 8514 ft 286 kts 219°
2026-04-29 10:01 -19.35360 -43.94257 8149 ft 285 kts 219°
2026-04-29 10:01 -19.36849 -43.95637 7799 ft 284 kts 219°
2026-04-29 10:01 -19.38328 -43.97007 7525 ft 279 kts 219°
2026-04-29 10:01 -19.39759 -43.98335 7403 ft 269 kts 219°
2026-04-29 10:02 -19.41141 -43.99617 7294 ft 259 kts 219°
2026-04-29 10:02 -19.42475 -44.00854 7176 ft 251 kts 219°
2026-04-29 10:02 -19.43738 -44.02100 6958 ft 248 kts 225°
2026-04-29 10:02 -19.44871 -44.03470 6715 ft 246 kts 227°
2026-04-29 10:03 -19.45980 -44.04844 6468 ft 244 kts 227°
2026-04-29 10:03 -19.47057 -44.06166 6369 ft 231 kts 227°
2026-04-29 10:03 -19.48102 -44.07439 6071 ft 226 kts 226°
2026-04-29 10:03 -19.49349 -44.08390 5723 ft 218 kts 189°
2026-04-29 10:04 -19.50729 -44.08242 5562 ft 192 kts 146°
2026-04-29 10:04 -19.51800 -44.07489 5358 ft 182 kts 141°
2026-04-29 10:04 -19.52796 -44.06709 5135 ft 173 kts 136°
2026-04-29 10:04 -19.53688 -44.05917 4952 ft 162 kts 134°
2026-04-29 10:05 -19.54514 -44.05152 4778 ft 158 kts 134°
2026-04-29 10:05 -19.55338 -44.04382 4563 ft 156 kts 134°
2026-04-29 10:05 -19.56136 -44.03637 4349 ft 151 kts 134°
2026-04-29 10:05 -19.56901 -44.02923 4170 ft 142 kts 134°
2026-04-29 10:06 -19.57630 -44.02242 3989 ft 139 kts 135°
2026-04-29 10:06 -19.58366 -44.01553 3816 ft 143 kts 135°
2026-04-29 10:06 -19.59112 -44.00857 3635 ft 143 kts 136°
2026-04-29 10:06 -19.59847 -44.00164 3424 ft 140 kts 136°
2026-04-29 10:07 -19.60552 -43.99482 3236 ft 135 kts 137°
2026-04-29 10:07 -19.61257 -43.98828 3055 ft 134 kts 140°
2026-04-29 10:07 -19.61959 -43.98182 2935 ft 133 kts 140°
2026-04-29 10:07 -19.62661 -43.97535 2798 ft 133 kts 139°
2026-04-29 10:08 -19.63296 -43.96948 2779 ft 106 kts 139°
2026-04-29 10:08 -19.63728 -43.96548 2779 ft 54 kts 139°
2026-04-29 10:08 -19.63998 -43.96299 2780 ft 49 kts 138°
2026-04-29 10:08 -19.64239 -43.96073 2778 ft 44 kts 139°
2026-04-29 10:09 -19.64348 -43.95905 2781 ft 19 kts 48°
2026-04-29 10:09 -19.64249 -43.95836 2783 ft 16 kts 329°
2026-04-29 10:09 -19.64163 -43.95888 2783 ft 12 kts 24°
2026-04-29 10:09 -19.64101 -43.95877 2782 ft 8 kts 316°
2026-04-29 10:10 -19.64061 -43.95917 2781 ft 8 kts 319°
2026-04-29 10:10 -19.64018 -43.95956 2781 ft 8 kts 319°
2026-04-29 10:10 -19.63975 -43.95994 2781 ft 8 kts 319°
2026-04-29 10:10 -19.63933 -43.96032 2781 ft 8 kts 319°
2026-04-29 10:11 -19.63882 -43.96079 2779 ft 12 kts 319°
2026-04-29 10:11 -19.63804 -43.96151 2779 ft 17 kts 319°
2026-04-29 10:11 -19.63717 -43.96231 2779 ft 17 kts 319°
2026-04-29 10:11 -19.63632 -43.96310 2779 ft 16 kts 319°
2026-04-29 10:12 -19.63534 -43.96314 2779 ft 15 kts 29°
2026-04-29 10:12 -19.63451 -43.96333 2779 ft 15 kts 299°
2026-04-29 10:12 -19.63406 -43.96428 2780 ft 14 kts 304°
2026-04-29 10:12 -19.63337 -43.96499 2779 ft 14 kts 319°
2026-04-29 10:13 -19.63268 -43.96563 2781 ft 13 kts 319°
2026-04-29 10:13 -19.63202 -43.96627 2781 ft 13 kts 317°
2026-04-29 10:13 -19.63137 -43.96688 2781 ft 12 kts 318°
2026-04-29 10:13 -19.63073 -43.96746 2781 ft 12 kts 320°
2026-04-29 10:14 -19.63009 -43.96802 2781 ft 10 kts 320°
2026-04-29 10:14 -19.62991 -43.96823 2783 ft 1 kts 277°
2026-04-29 10:14 -19.62994 -43.96833 2782 ft 3 kts 248°
2026-04-29 10:14 -19.63004 -43.96847 2781 ft 2 kts 232°
2026-04-29 10:15 -19.63012 -43.96857 2783 ft 2 kts 231°
2026-04-29 10:15 -19.63019 -43.96866 2782 ft 2 kts 228°
2026-04-29 10:15 -19.63020 -43.96867 2782 ft 0 kts 228°